Regional Weather Roundup
Issued by NWS Northern Indiana

Home | Current Version | Previous Version | Text Only | Print | Product List | Glossary Off
Versions: 1 2 3 4 5 6 7 8 9 10 11 12 13 14 15 16 17 18 19 20 21 22 23 24 25 26 27 28 29 30 31 32 33 34 35 36 37 38 39 40 41 42 43 44 45 46 47 48 49 50

000
ASUS43 KIWX 280500
RWRIWX

KIWX WEATHER ROUNDUP
NATIONAL WEATHER SERVICE NORTHERN INDIANA
1200 AM EST FRI NOV 28 2014

NOTE: "FAIR" INDICATES FEW OR NO CLOUDS BELOW 12,000 FEET WITH NO
SIGNIFICANT WEATHER AND/OR OBSTRUCTIONS TO VISIBILITY.

* THESE STATIONS ARE NOT UNDER NWS QUALITY CONTROL. THEY ALSO MAY NOT
  REPORT WEATHER SUCH AS PRECIPITATION OR FOG.

INZ001>027-280600-
NORTHERN INDIANA

CITY           SKY/WX    TMP DP  RH WIND       PRES   REMARKS
SOUTH BEND     CLOUDY    23  14  68 W8        30.36S WCI  14
GOSHEN         CLOUDY    22  17  81 NW7       30.35S WCI  13
ANGOLA*        CLOUDY    21  16  79 NW3       30.33R
FORT WAYNE     CLOUDY    23  18  81 W10       30.37S WCI  12

$$
INZ028>050-280600-
CENTRAL INDIANA

CITY           SKY/WX    TMP DP  RH WIND       PRES   REMARKS
LAFAYETTE      PTCLDY    19  15  84 W6        30.42S WCI  11
KOKOMO*        CLOUDY    25  16  68 W6        30.39S WCI  18
MUNCIE*        PTCLDY    22  16  78 W5        30.38R WCI  16
INDIANAPOLIS   FLURRIES  24  16  71 NW9       30.39S WCI  14

$$
MIZ043>046-050>051-056>058-064>065-071>073-077>080-280600-
SOUTHWEST LOWER MICHIGAN

CITY           SKY/WX    TMP DP  RH WIND       PRES   REMARKS
BATTLE CREEK   CLOUDY    22  13  68 NW7       30.33S WCI  13
BENTON HARBOR  CLOUDY    24  12  60 CALM      30.35F
COLDWATER*     CLOUDY    24  17  76 NW7       30.33S WCI  16
HILLSDALE*     MOCLDY    20  13  76 CALM      30.30S
HOLLAND        CLOUDY    21  13  71 E3        30.35F
GRAND RAPIDS   PTCLDY    18   9  68 NW3       30.34S
KALAMAZOO      CLOUDY    21  15  78 N6        30.34S WCI  13
STURGIS*       FLURRIES  21  19  93 NW3       30.33S
THREE RIVERS*  FLURRIES  24  19  84 CALM      30.35S

$$
OHZ001>008-015>018-024>025-280600-
NORTHWEST OHIO

CITY           SKY/WX    TMP DP  RH WIND       PRES   REMARKS
DEFIANCE       CLOUDY    26  17  68 W9        30.35R WCI  17
FINDLAY        CLOUDY    27  19  72 NW12      30.32R WCI  17
TOLEDO EXPRESS PTCLDY    23  15  71 NW7       30.33R WCI  15
TOLEDO METCALF CLEAR     22  15  75 NW8       30.33S WCI  12
LIMA           FLURRIES  28  21  75 W12       30.33R WCI  18

$$
AND FOR LAKE MICHIGAN COASTAL AND OPEN LAKE BUOY OBSERVATIONS

STATION/POSITION TEMP    WIND        PRES    VSBY  WAVE
                 AIR SEA DIR/SP/G                  HT/PER
                 (F)     (DEG/KT/KT) (MB)    (MI)  (FT/S)
CALUMET HARBOR    19     280/  5/  6 1028.2F
MICHIGAN CITY     24     230/ 11/ 14   N/A
SAINT JOSEPH      27     310/  7/ 16 1028.8R
SOUTH LAKE BUOY   23 42  300/  8/ 12 1029.6R         4/ 6

$$
&&



USA.gov is the U.S. government's official web portal to all federal, state and local government web resources and services.